Weather History for Courtland, AL

Change the Weather History Date:

Wednesday, November 21, 2012

  Actual Average (KMSL) Record (KMSL)
Temperature  
Mean Temperature 52 °F 50 °F  
Max Temperature 68 °F 61 °F 79 °F (1896)
Min Temperature 37 °F 39 °F 10 °F (1914)
Degree Days  
Heating Degree Days 12 15  
Month to date heating degree days 247  
Since 1 July heating degree days 415  
Cooling Degree Days 0 0  
Month to date cooling degree days 4  
Year to date cooling degree days 1868  
Growing Degree Days 2 (Base 50)    
Moisture  
Dew Point 41 °F    
Average Humidity 78    
Maximum Humidity 100    
Minimum Humidity 43    
Precipitation  
Precipitation 0.00 in 0.17 in 2.99 in (1977)
Month to date precipitation 3.02  
Year to date precipitation 45.88  
Snow  
Snow 0.00 in - - ()
Month to date snowfall  
Since 1 July snowfall  
Since 1 September snowfall  
Snow Depth -    
Sea Level Pressure  
Sea Level Pressure 30.19 in    
Wind  
Wind Speed 1 mph (North)    
Max Wind Speed 8 mph    
Max Gust Speed -    
Visibility 10 miles    
Events      
T = Trace of Precipitation, MM = Missing Value Source: NWS Daily Summary

Daily Weather History Graph

Daily Weather History Graph

Search for Another Location

Airport:

Trip Planner

Search our weather history database for the weather conditions in past years. The results will help you decide how hot, cold, wet, or windy it might be!

Date:

Astronomy

Nov. 21, 2012 Rise Set
Actual Time 6:29 AM CST 4:41 PM CST
Civil Twilight 6:02 AM CST 5:08 PM CST
Nautical Twilight 5:31 AM CST 5:39 PM CST
Astronomical Twilight 5:01 AM CST 6:09 PM CST
Moon 12:43 PM CST (11/21) 12:03 AM CST (11/21)
Length of Visible Light 11h 06m
Length of Day
10h 11m
First Quarter, 62% of the Moon is Illuminated
Nov 21
First Quarter
Nov 28
Full
Dec 6
Last Quarter
Dec 13
New
Dec 19
First Quarter

Hourly Weather History & Observations

Time (CST) Temp. Dew Point Humidity Pressure Visibility Wind Dir Wind Speed Gust Speed Precip Events Conditions
12:15 AM 42.8 °F 41.0 °F 93% 30.14 in 10.0 mi Calm Calm - N/A   Clear
12:35 AM 42.8 °F 41.0 °F 93% 30.14 in 10.0 mi Calm Calm - N/A   Clear
12:55 AM 42.8 °F 39.2 °F 87% 30.14 in 10.0 mi Calm Calm - N/A   Clear
1:15 AM 41.0 °F 39.2 °F 93% 30.13 in 10.0 mi Calm Calm - N/A   Clear
1:35 AM 41.0 °F 39.2 °F 93% 30.13 in 10.0 mi Calm Calm - N/A   Clear
1:55 AM 41.0 °F 39.2 °F 93% 30.13 in 10.0 mi Calm Calm - N/A   Clear
2:15 AM 41.0 °F 37.4 °F 87% 30.14 in 10.0 mi Calm Calm - N/A   Clear
2:35 AM 41.0 °F 39.2 °F 93% 30.14 in 10.0 mi Calm Calm - N/A   Clear
2:55 AM 39.2 °F 37.4 °F 93% 30.14 in 10.0 mi Calm Calm - N/A   Clear
3:15 AM 39.2 °F 37.4 °F 93% 30.14 in 10.0 mi Calm Calm - N/A   Clear
3:35 AM 41.0 °F 37.4 °F 87% 30.14 in 10.0 mi Calm Calm - N/A   Clear
3:55 AM 39.2 °F 37.4 °F 93% 30.14 in 10.0 mi Calm Calm - N/A   Clear
4:15 AM 39.2 °F 37.4 °F 93% 30.14 in 10.0 mi Calm Calm - N/A   Clear
4:35 AM 37.4 °F 37.4 °F 100% 30.16 in 10.0 mi Calm Calm - N/A   Clear
4:55 AM 37.4 °F 37.4 °F 100% 30.16 in 10.0 mi Calm Calm - N/A   Clear
5:15 AM 37.4 °F 35.6 °F 93% 30.16 in 10.0 mi Calm Calm - N/A   Clear
5:35 AM 37.4 °F 37.4 °F 100% 30.16 in 10.0 mi Calm Calm - N/A   Clear
5:55 AM 39.2 °F 39.2 °F 100% 30.17 in 10.0 mi Calm Calm - N/A   Clear
6:15 AM 37.4 °F 35.6 °F 93% 30.17 in 10.0 mi Calm Calm - N/A   Clear
6:35 AM 37.4 °F 35.6 °F 93% 30.18 in 10.0 mi Calm Calm - N/A   Clear
6:55 AM 37.4 °F 35.6 °F 93% 30.19 in 10.0 mi Calm Calm - N/A   Clear
7:15 AM 37.4 °F 37.4 °F 100% 30.20 in 10.0 mi Calm Calm - N/A   Clear
7:35 AM 41.0 °F 41.0 °F 100% 30.21 in 10.0 mi Calm Calm - N/A   Clear
7:55 AM 44.6 °F 42.8 °F 93% 30.21 in 10.0 mi Calm Calm - N/A   Clear
8:15 AM 46.4 °F 44.6 °F 93% 30.21 in 10.0 mi Calm Calm - N/A   Clear
8:35 AM 50.0 °F 46.4 °F 87% 30.21 in 10.0 mi Calm Calm - N/A   Clear
8:55 AM 51.8 °F 46.4 °F 82% 30.22 in 10.0 mi North 5.8 mph - N/A   Clear
9:15 AM 53.6 °F 46.4 °F 77% 30.23 in 10.0 mi North 3.5 mph - N/A   Mostly Cloudy
9:35 AM 53.6 °F 46.4 °F 77% 30.23 in 10.0 mi Calm Calm - N/A   Overcast
10:15 AM 59.0 °F 46.4 °F 63% 30.23 in 10.0 mi Calm Calm - N/A   Scattered Clouds
10:35 AM 60.8 °F 46.4 °F 59% 30.23 in 10.0 mi NE 6.9 mph - N/A   Clear
10:55 AM 60.8 °F 46.4 °F 59% 30.22 in 10.0 mi North 3.5 mph - N/A   Clear
11:15 AM 62.6 °F 46.4 °F 55% 30.22 in 10.0 mi North 4.6 mph - N/A   Clear
11:35 AM 62.6 °F 46.4 °F 55% 30.21 in 10.0 mi NNW 5.8 mph - N/A   Clear
11:55 AM 64.4 °F 46.4 °F 52% 30.21 in 10.0 mi North 3.5 mph - N/A   Clear
12:15 PM 66.2 °F 46.4 °F 49% 30.20 in 10.0 mi North 8.1 mph - N/A   Clear
12:35 PM 64.4 °F 44.6 °F 49% 30.19 in 10.0 mi NNE 5.8 mph - N/A   Clear
1:15 PM 68.0 °F 44.6 °F 43% 30.18 in 10.0 mi North 6.9 mph - N/A   Scattered Clouds
1:35 PM 68.0 °F 44.6 °F 43% 30.18 in 10.0 mi Calm Calm - N/A   Scattered Clouds
1:55 PM 68.0 °F 44.6 °F 43% 30.17 in 10.0 mi North 5.8 mph - N/A   Clear
2:15 PM 68.0 °F 44.6 °F 43% 30.18 in 10.0 mi North 4.6 mph - N/A   Clear
2:35 PM 68.0 °F 44.6 °F 43% 30.17 in 10.0 mi NNW 4.6 mph - N/A   Clear
2:55 PM 68.0 °F 44.6 °F 43% 30.17 in 10.0 mi NNW 5.8 mph - N/A   Clear
3:15 PM 66.2 °F 44.6 °F 46% 30.17 in 10.0 mi NW 8.1 mph - N/A   Clear
3:35 PM 68.0 °F 44.6 °F 43% 30.18 in 10.0 mi NNW 6.9 mph - N/A   Clear
3:55 PM 66.2 °F 42.8 °F 43% 30.18 in 10.0 mi NNW 6.9 mph - N/A   Clear
4:15 PM 64.4 °F 42.8 °F 45% 30.17 in 10.0 mi North 5.8 mph - N/A   Clear
4:35 PM 62.6 °F 42.8 °F 48% 30.18 in 10.0 mi NNW 4.6 mph - N/A   Clear
4:55 PM 60.8 °F 42.8 °F 52% 30.18 in 10.0 mi North 3.5 mph - N/A   Clear
5:15 PM 55.4 °F 42.8 °F 63% 30.18 in 10.0 mi Calm Calm - N/A   Clear
5:35 PM 51.8 °F 42.8 °F 71% 30.18 in 10.0 mi Calm Calm - N/A   Clear
6:15 PM 50.0 °F 42.8 °F 76% 30.19 in 10.0 mi Calm Calm - N/A   Clear
6:35 PM 48.2 °F 42.8 °F 82% 30.20 in 10.0 mi Calm Calm - N/A   Clear
6:55 PM 46.4 °F 42.8 °F 87% 30.20 in 10.0 mi Calm Calm - N/A   Clear
7:15 PM 46.4 °F 41.0 °F 81% 30.21 in 10.0 mi Calm Calm - N/A   Clear
7:35 PM 44.6 °F 41.0 °F 87% 30.21 in 10.0 mi Calm Calm - N/A   Clear
7:55 PM 44.6 °F 41.0 °F 87% 30.21 in 10.0 mi Calm Calm - N/A   Clear
8:15 PM 42.8 °F 39.2 °F 87% 30.21 in 10.0 mi Calm Calm - N/A   Clear
8:35 PM 42.8 °F 41.0 °F 93% 30.21 in 10.0 mi Calm Calm - N/A   Clear
8:55 PM 42.8 °F 41.0 °F 93% 30.22 in 7.0 mi Calm Calm - N/A   Clear
9:15 PM 41.0 °F 39.2 °F 93% 30.23 in 10.0 mi Calm Calm - N/A   Clear
9:35 PM 42.8 °F 41.0 °F 93% 30.22 in 10.0 mi Calm Calm - N/A   Clear
9:55 PM 41.0 °F 39.2 °F 93% 30.22 in 7.0 mi Calm Calm - N/A   Clear
10:15 PM 42.8 °F 41.0 °F 93% 30.22 in 10.0 mi Calm Calm - N/A   Clear
10:55 PM 39.2 °F 37.4 °F 93% 30.22 in 10.0 mi Calm Calm - N/A   Clear
11:15 PM 37.4 °F 37.4 °F 100% 30.22 in 10.0 mi Calm Calm - N/A   Clear
11:35 PM 37.4 °F 37.4 °F 100% 30.22 in 7.0 mi Calm Calm - N/A   Clear
11:55 PM 39.2 °F 37.4 °F 93% 30.22 in 7.0 mi Calm Calm - N/A   Clear